Simultaneous Nadir Overpasses (SNOs) Predictions

Prediction of SNOs between METOP-C and LANDSAT-8 Satellite Orbit:

Table of predicted SNOs for the next 14.0 days since TLE Epoch: 9/21/2024
Index Date (METOP-C) Time (METOP-C) Lat,Lon (METOP-C) SZA (METOP-C ) Date (LANDSAT-8) Time (LANDSAT-8) Lat,Lon (LANDSAT-8) SZA (LANDSAT-8 ) Distance(km) Time Diff (sec)
1 09/23/2024 08:26:31 81.09, 92.75 83.61 09/23/2024 08:26:57 81.09, 92.74 83.61 0.49 26
2 09/23/2024 09:17:10 -81.11, -99.40 96.32 09/23/2024 09:16:23 -81.11, -99.30 96.33 1.73 47
3 09/26/2024 04:00:54 81.10, 159.33 84.74 09/26/2024 04:01:09 81.10, 159.42 84.76 1.70 15
4 09/26/2024 04:51:32 -81.13, -32.42 95.13 09/26/2024 04:50:35 -81.13, -32.61 95.18 3.20 57
5 09/28/2024 23:35:15 81.11,-133.87 85.91 09/28/2024 23:35:19 81.12,-133.94 85.91 1.24 4
6 09/29/2024 00:25:55 -81.12, 33.67 94.05 09/29/2024 00:24:46 -81.12, 33.69 94.09 0.62 69
7 10/01/2024 18:18:59 -81.08, 124.36 93.11 10/01/2024 18:20:05 -81.08, 124.32 93.09 0.78 66
8 10/01/2024 19:09:38 81.11, -67.58 87.01 10/01/2024 19:09:30 81.10, -67.69 86.98 2.08 8
9 10/04/2024 13:53:21 -81.09,-169.07 91.98 10/04/2024 13:54:14 -81.09,-169.08 91.96 0.23 53



Historial Predications of SNOs between METOP-C and LANDSAT-8
